Location: Gradaro
(45.0833°N, 10.8833°E)
Time: 00:09:46
(UTC+00:00)

Cosmos 2263 Rocket - Visible Passes

Search period start: 20 April 2021 00:00
Search period end: 30 April 2021 00:00
Orbit: 825 x 847 km, 71.0° (Epoch: 19 April)

Date Brightness Start Highest point End Pass type
(mag) Time Alt. Az. Time Alt. Az. Time Alt. Az.
20 Apr 3.7 21:08:52 22° ENE 21:08:52 22° ENE 21:11:17 10° NE visible
20 Apr 3.1 22:50:30 42° NW 22:50:30 42° NW 22:55:31 10° NNE visible
21 Apr 3.6 20:51:48 22° ENE 20:51:48 22° ENE 20:54:25 10° NE visible
21 Apr 3.0 22:33:26 46° WNW 22:33:26 46° WNW 22:38:46 10° NNE visible
22 Apr 4.9 00:18:05 10° NW 00:18:52 10° NW 00:19:39 10° NNW visible
22 Apr 3.5 20:34:38 23° ENE 20:34:38 23° ENE 20:37:32 10° NE visible
22 Apr 2.8 22:16:15 48° WNW 22:16:36 49° WNW 22:22:01 10° NNE visible
23 Apr 4.8 00:00:30 10° NW 00:01:58 11° NW 00:03:27 10° NNW visible
23 Apr 3.4 20:17:20 23° E 20:17:20 23° E 20:20:39 10° NE visible
23 Apr 2.7 21:58:57 48° W 21:59:48 53° WNW 22:05:16 10° NNE visible
23 Apr 4.8 23:43:10 10° WNW 23:45:05 12° NW 23:47:01 10° NNW visible
24 Apr 3.3 19:59:51 22° E 19:59:51 22° E 20:03:44 10° NE visible
24 Apr 2.6 21:41:27 43° WSW 21:43:00 57° WNW 21:48:31 10° NNE visible
24 Apr 4.8 23:25:55 10° WNW 23:28:13 12° NW 23:30:31 10° NNW visible
25 Apr 3.4 19:42:07 20° ESE 19:42:49 20° E 19:46:48 10° NE visible
25 Apr 2.5 21:23:42 32° SW 21:26:12 62° WNW 21:31:45 10° NNE visible
25 Apr 4.8 23:08:44 10° WNW 23:11:21 13° NW 23:13:57 10° N visible
26 Apr 3.5 19:23:58 15° SE 19:26:05 19° E 19:29:52 10° ENE visible
26 Apr 2.4 21:05:30 20° SW 21:09:25 67° WNW 21:14:59 10° NNE visible
26 Apr 4.8 22:51:35 10° WNW 22:54:28 14° NW 22:57:21 10° N visible
27 Apr 3.6 19:05:53 10° SE 19:09:22 17° E 19:12:52 10° ENE visible
27 Apr 2.3 20:47:05 10° SSW 20:52:38 72° WNW 20:58:13 10° NNE visible
27 Apr 4.8 22:34:29 10° WNW 22:37:36 15° NW 22:40:44 10° N visible
28 Apr 3.6 18:49:28 10° SE 18:52:40 16° E 18:55:52 10° ENE visible
28 Apr 2.2 20:30:17 10° SSW 20:35:51 78° WNW 20:41:28 10° NNE visible
28 Apr 4.8 22:17:24 10° W 22:20:44 16° NW 22:24:07 10° N visible
29 Apr 2.2 20:13:30 10° SSW 20:19:04 84° WNW 20:24:41 10° NNE visible
29 Apr 4.8 22:00:20 10° W 22:03:53 17° NW 22:07:27 10° N visible
